Regional Weather Roundup
Issued by NWS

Home | Current Version | Previous Version | Graphics & Text | Print | Product List | Glossary On
Versions: 1 2 3 4 5 6 7 8 9 10 11 12 13 14 15 16 17 18 19 20 21 22 23 24 25 26 27 28 29 30 31 32 33 34 35 36 37 38 39 40 41 42 43 44 45 46 47 48 49 50
000
ASUS43 KLMK 250902
RWRKY
KENTUCKY REGIONAL WEATHER ROUNDUP
NATIONAL WEATHER SERVICE LOUISVILLE KY
500 AM EDT SAT OCT 25 2014

NOTE "FAIR" INDICATES FEW OR NO CLOUDS BELOW 12,000 FEET
WITH NO SIGNIFICANT WEATHER AND/OR OBSTRUCTIONS TO VISIBILITY.

KYZ001>023-026-027-061>063-070>075-251000-
WESTERN AND SOUTH CENTRAL KENTUCKY

CITY           SKY/WX    TMP DP  RH WIND       PRES   REMARKS
PADUCAH        PTCLDY    56  52  86 S7        30.02F
HENDERSON      CLOUDY   N/A N/A N/A S6        30.01F
OWENSBORO      MOCLDY    54  52  93 S5        30.03F
HOPKINSVILLE   CLEAR     50  50 100 CALM      30.06F
BOWLING GREEN  PTCLDY    46  42  86 CALM      30.08S
GLASGOW        CLEAR     43  43 100 CALM      30.07F
$$

KYZ024-025-028>034-038-045-046-053-251000-
NORTH CENTRAL KENTUCKY

CITY           SKY/WX    TMP DP  RH WIND       PRES   REMARKS
LOUISVILLE/SDF PTCLDY    50  46  86 SE12      30.03F
LOUISVILLE/LOU PTCLDY    47  45  93 CALM      30.04F
FORT KNOX      PTCLDY    48  46  93 CALM      30.03F
$$

KYZ035>037-039>044-047>052-055>060-089>105-251000-
NORTHEAST KENTUCKY

CITY           SKY/WX    TMP DP  RH WIND       PRES   REMARKS
LEXINGTON      CLEAR     46  40  79 S8        30.04F
COVINGTON      CLOUDY    49  43  80 S5        30.01F
FRANKFORT      PTCLDY    43  40  89 CALM      30.03F
$$

KYZ054-064>069-076>088-106>120-251000-
SOUTHEAST KENTUCKY

CITY           SKY/WX    TMP DP  RH WIND       PRES   REMARKS
JACKSON        CLEAR     44  40  85 CALM      30.06S
LONDON         CLEAR     41  38  89 CALM      30.08R
SOMERSET       CLEAR     39  39 100 CALM      30.10R
MIDDLESBORO    FOG       38  38 100 CALM      30.10F VSB 1/4
MONTICELLO     SUNNY     39  39 100 CALM      30.11R FOG
$$




USA.gov is the U.S. government's official web portal to all federal, state and local government web resources and services.